Theta_e
315 317 317 315 312 309 313 314 314 314 314 314 313 313 311 310 309 308 311 317 321 322 322 319 321 324 324 323 326 321 324 327 329 330 330 322 322 319 318 325 327 329 326 327 331
313 315 317 317 315 312 308 312 313 312 313 314 313 312 309 307 305 307 305 309 319 322 321 322 323 325 318 321 324 323 322 323 324 325 327 322 320 321 321 323 326 330 330 328 330
311 313 316 318 317 315 313 310 309 309 308 312 310 307 304 303 305 302 316 315 306 321 320 319 323 325 322 321 326 323 321 321 326 325 323 325 323 323 321 321 320 325 331 328 329
312 311 314 314 316 317 315 313 311 309 310 310 309 305 302 308 298 316 319 317 312 311 320 319 324 326 323 322 321 326 325 323 323 321 322 324 323 326 320 323 320 322 328 328 327
311 310 311 313 313 314 317 315 312 309 311 311 310 304 306 310 309 310 319 319 319 318 319 319 323 325 325 322 321 324 323 323 321 321 321 320 323 324 323 321 320 324 329 328 327
309 311 309 311 312 311 313 316 315 311 311 313 310 304 312 300 304 312 317 318 317 318 319 320 321 321 324 323 320 319 320 321 322 321 321 322 321 323 321 319 319 320 325 327 327
310 310 311 310 309 310 310 312 316 312 310 313 311 306 311 303 309 315 319 320 319 318 318 319 321 321 321 322 320 321 323 321 322 322 322 319 322 322 319 319 319 318 316 318 324
308 309 310 311 309 308 308 310 313 315 311 313 310 307 305 305 304 315 315 319 320 320 318 319 320 321 324 321 319 322 320 322 319 321 321 319 317 316 316 317 318 316 314 312 312
306 307 309 310 310 308 308 309 312 315 311 312 310 306 308 308 307 309 312 318 319 319 318 319 320 320 321 320 320 319 319 321 321 319 319 321 322 318 315 315 315 313 312 312 312
304 305 307 309 310 309 309 310 313 315 311 311 309 310 308 308 309 306 310 315 318 318 318 319 318 319 317 321 320 320 322 321 322 318 318 319 317 316 315 315 314 313 313 312 312
305 303 306 309 309 310 309 311 314 313 311 311 310 309 309 308 309 307 311 313 317 317 315 318 319 319 319 319 318 316 320 320 319 318 318 316 315 314 314 312 311 311 312 313 314
305 304 304 307 309 310 308 310 313 312 313 310 310 308 309 309 311 310 312 316 318 317 315 318 317 314 315 317 320 320 321 320 318 317 317 316 317 315 315 315 312 312 312 311 312
305 306 303 304 308 309 309 309 312 311 311 310 310 310 309 308 310 311 312 314 316 317 316 315 313 312 316 318 319 320 319 319 319 317 316 312 312 311 310 310 310 310 311 310 310
306 306 304 304 307 309 309 308 310 309 313 313 310 311 308 309 310 309 312 313 315 315 316 316 314 314 315 317 317 319 317 319 320 320 319 313 317 311 310 310 310 309 307 307 306
302 305 305 304 307 309 309 308 310 309 313 309 310 309 307 309 309 310 313 312 313 313 312 312 314 315 316 316 316 316 316 318 318 318 316 315 316 312 309 311 310 308 306 305 305
304 303 305 305 306 308 309 308 308 310 312 311 309 310 310 310 310 309 313 311 310 312 311 311 310 311 312 314 315 316 317 317 316 315 317 313 314 311 311 309 308 307 306 307 309
304 303 305 305 306 307 308 308 310 309 305 310 311 310 310 313 312 311 313 314 311 312 312 312 312 310 312 315 315 317 318 311 312 317 314 310 312 312 309 307 306 307 306 305 307
303 304 305 304 305 306 308 309 310 306 308 306 307 309 311 312 312 312 313 314 310 306 308 311 311 311 310 313 314 316 316 311 310 314 311 311 314 310 309 308 308 307 305 305 306
303 304 306 305 305 307 309 310 310 305 304 307 308 310 311 312 311 313 313 312 311 307 308 309 309 308 309 311 312 314 319 311 310 306 309 310 309 308 308 309 308 308 308 308 303
304 304 305 304 305 307 308 310 302 303 303 306 308 307 310 310 309 313 313 311 311 310 306 307 310 307 309 311 312 313 311 317 317 313 312 311 311 312 309 308 306 308 309 303 304
303 303 304 304 305 305 307 309 304 303 304 304 304 307 307 309 307 310 309 308 309 309 309 307 308 310 310 312 311 315 315 314 312 310 312 309 308 304 308 308 307 305 304 302 306
302 304 303 305 305 304 306 304 303 303 303 303 303 304 306 307 308 308 308 307 306 308 311 308 308 307 311 310 311 311 314 313 313 310 311 311 311 306 305 306 306 307 305 303 305
301 300 304 304 305 305 302 302 302 305 305 304 304 304 303 307 310 308 307 305 307 309 310 309 311 307 305 307 309 312 311 314 314 310 313 314 311 305 305 307 309 308 305 305 303
299 303 304 303 301 304 300 305 305 305 305 304 304 304 304 305 306 308 307 306 305 307 309 310 309 309 310 307 307 312 311 311 314 316 314 314 312 309 309 307 309 309 307 305 302
297 301 300 304 301 300 300 301 303 306 303 304 306 305 305 305 306 307 306 305 305 308 309 310 307 307 308 307 309 309 310 311 313 314 314 312 311 310 307 308 307 306 307 306 304
299 300 298 303 302 301 302 302 304 303 303 306 304 304 304 305 306 307 305 305 307 306 308 307 306 305 307 308 307 307 309 309 311 313 313 312 312 309 307 304 304 304 304 306 305
294 294 297 302 302 303 300 300 304 301 301 303 305 305 307 305 304 304 304 304 305 305 308 307 306 309 310 308 306 310 308 309 309 310 311 312 311 310 308 307 306 306 304 305 305
Wind_Speed
13 17 19 15 13 14 14 12 11 10 10 9 10 11 11 13 14 13 5 4 4 8 10 11 4 9 3 3 3 2 4 2 4 5 2 2 2 1 0 4 2 2 1 2 15
17 14 18 20 14 12 14 14 13 11 9 8 8 9 10 11 13 12 11 12 5 5 6 8 5 8 3 2 2 4 3 9 4 3 2 2 2 2 2 1 1 2 1 5 20
18 15 11 18 17 14 12 13 13 11 10 8 7 7 7 7 4 3 8 7 12 4 2 3 2 1 2 2 0 3 5 4 3 0 2 1 2 1 5 3 5 5 4 7 11
16 17 14 11 10 19 15 11 10 10 8 6 4 4 2 2 4 3 9 7 3 11 1 3 2 2 3 3 1 1 3 4 3 0 2 1 4 2 4 3 3 0 6 8 9
19 17 17 15 14 10 16 14 10 9 8 5 3 2 3 0 6 4 5 7 5 4 2 2 1 2 3 2 1 2 2 3 2 2 3 3 4 2 5 4 1 5 6 8 8
19 20 19 18 18 14 12 14 13 10 11 8 6 5 2 2 2 3 1 3 5 2 4 3 1 0 1 1 4 1 1 1 1 3 3 3 3 3 6 1 6 5 7 8 9
18 19 20 20 19 16 15 13 14 13 12 10 7 5 2 9 1 1 1 3 4 1 3 4 2 3 1 0 2 1 1 3 2 3 4 4 5 9 6 4 5 7 7 6 11
17 18 20 20 18 20 18 14 12 15 12 11 8 4 5 4 9 8 2 1 3 2 3 3 3 1 1 2 4 1 4 2 3 4 2 6 6 8 5 5 10 11 8 7 9
20 19 19 21 20 18 18 16 13 16 12 12 7 4 7 5 6 13 5 2 1 1 3 3 2 3 1 4 3 3 3 5 4 5 0 6 3 7 3 6 9 9 9 9 9
25 21 20 20 20 18 15 12 11 15 16 12 6 1 4 4 3 4 8 3 3 4 4 3 1 3 2 3 5 5 2 1 2 3 2 5 8 10 11 5 10 9 10 9 9
26 25 21 21 21 19 15 6 6 5 11 4 10 3 2 4 4 4 11 4 1 4 3 1 3 7 7 5 2 4 1 3 3 4 3 7 8 11 12 6 10 11 9 11 14
27 26 24 21 22 23 22 5 5 2 5 4 3 2 1 2 3 2 12 5 4 4 4 2 9 4 2 3 2 3 1 3 6 3 2 8 16 17 17 16 11 13 14 13 9
27 28 26 24 22 24 27 25 12 6 4 4 1 7 4 1 4 8 10 5 4 5 6 5 3 9 4 3 9 11 15 4 7 6 4 7 9 11 7 4 6 10 16 9 10
29 29 27 25 15 25 20 29 11 1 2 6 5 5 4 3 3 6 14 5 2 8 6 5 4 5 5 4 6 6 6 5 4 5 4 5 8 5 6 7 5 10 8 9 9
28 32 30 29 9 18 13 22 24 3 6 11 8 6 5 6 6 0 3 4 7 6 6 5 5 8 5 6 7 5 5 7 5 4 4 3 4 5 4 5 11 9 7 8 8
32 32 34 27 28 17 20 28 14 7 8 8 7 8 8 5 2 3 3 4 3 3 2 4 2 5 8 4 10 4 4 2 2 2 7 8 7 3 4 5 4 4 6 5 5
35 33 38 31 25 25 30 19 9 13 4 6 6 7 16 9 6 6 8 10 7 5 6 3 4 0 3 5 1 5 4 0 1 3 6 0 4 5 9 8 7 8 10 6 4
39 36 40 37 33 32 33 11 14 10 6 3 8 10 12 10 8 5 11 10 7 3 3 6 3 11 6 7 7 10 7 5 8 5 4 1 7 6 5 8 9 7 8 6 4
41 36 35 36 40 40 11 15 14 16 11 11 12 12 8 10 6 9 10 11 13 8 6 5 5 1 4 4 8 4 11 5 5 1 2 4 7 8 9 10 6 4 5 5 6
41 30 31 39 42 28 11 16 8 2 6 10 9 13 13 17 8 14 11 10 10 17 2 5 1 4 7 3 3 6 6 4 3 2 5 4 5 7 8 8 7 5 6 4 6
25 10 22 44 38 11 6 8 4 10 8 5 4 7 15 13 11 11 10 2 18 11 16 5 3 1 7 7 15 7 7 4 5 5 4 2 5 7 9 5 8 9 7 8 7
13 12 32 45 12 7 16 4 4 5 4 4 5 4 9 13 11 7 13 7 8 11 13 7 3 4 8 2 2 13 6 7 4 4 4 3 12 1 4 5 5 0 2 5 7
10 3 32 44 14 7 3 3 2 8 7 6 5 4 3 10 8 8 7 7 6 10 12 9 4 2 6 4 3 6 14 11 12 2 13 7 10 5 6 5 4 5 7 9 7
4 5 8 9 2 10 6 5 3 2 4 4 5 5 5 7 3 14 9 5 9 9 8 14 4 7 10 5 5 6 8 20 15 12 19 14 26 13 2 6 6 5 5 6 7
2 3 2 10 6 5 4 9 9 4 2 4 4 6 8 4 11 5 14 5 2 10 11 10 6 7 12 3 3 5 9 15 17 25 17 28 21 27 10 9 8 6 5 6 8
3 3 4 13 12 11 6 6 17 8 10 8 6 5 4 8 12 17 8 5 6 5 10 5 7 6 10 12 11 3 4 10 20 26 19 27 23 30 6 8 9 9 8 9 12
3 2 5 12 11 10 8 7 11 12 2 5 8 5 5 4 5 3 5 3 4 8 12 6 7 6 16 9 5 7 18 21 14 17 18 19 30 29 15 14 15 16 11 13 14
Wind_Direction
256 241 234 231 223 223 216 224 233 244 254 267 279 291 302 310 310 307 272 251 302 316 335 334 353 10 5 30 29 127 74 184 215 162 215 293 159 37 304 117 56 337 161 333 155
254 261 237 231 229 222 222 221 225 232 243 257 273 291 304 317 317 289 274 255 266 313 356 15 359 3 33 15 13 95 146 200 215 210 166 158 160 161 108 104 211 296 25 135 156
251 248 247 235 230 227 221 224 229 232 234 249 271 285 299 319 319 265 337 307 249 232 350 348 332 57 57 17 188 154 194 204 210 117 12 108 135 182 130 225 217 207 180 151 165
251 242 243 245 234 228 226 222 224 225 225 232 262 283 293 319 229 30 3 3 228 205 278 359 16 107 136 194 220 199 229 180 205 166 64 355 317 279 181 201 126 89 160 166 176
250 242 238 239 237 233 226 226 222 219 220 220 231 217 118 114 256 325 5 43 98 167 129 42 79 115 169 196 87 187 253 209 265 301 303 341 268 256 269 217 232 79 148 189 205
251 245 235 237 236 232 232 226 225 216 213 208 202 175 132 226 265 312 299 38 41 123 160 163 89 298 164 149 175 265 219 306 323 278 287 232 310 145 257 194 227 200 202 209 216
253 250 241 238 242 236 232 226 222 218 209 199 195 171 112 244 274 294 254 335 5 27 140 183 121 53 33 247 306 147 174 339 236 203 242 168 281 226 234 293 270 222 226 230 233
253 248 246 238 244 242 240 234 229 219 208 192 184 157 249 276 257 238 258 59 5 53 117 99 189 134 150 299 20 70 70 110 250 196 246 146 254 262 196 210 254 271 271 246 248
249 250 245 244 242 242 240 234 227 212 194 177 157 139 266 275 247 223 216 127 77 85 141 23 121 132 34 93 33 0 238 213 327 217 321 185 256 270 123 195 255 274 274 273 274
250 245 245 240 235 234 228 222 214 200 160 149 141 118 254 235 188 197 191 139 91 106 54 47 77 129 102 120 203 221 275 358 251 335 50 278 259 271 287 244 257 256 272 275 263
247 242 236 235 231 224 208 175 145 213 164 169 182 205 102 208 132 180 171 141 94 113 147 236 183 200 193 195 139 100 266 265 287 282 295 261 274 266 274 274 264 271 253 259 259
238 239 232 230 226 219 206 204 201 198 118 262 208 248 295 169 111 172 161 159 169 160 122 125 235 219 93 153 171 148 207 286 282 272 249 293 286 282 268 261 237 252 260 251 256
233 233 234 226 225 217 203 203 185 190 114 192 228 218 222 165 192 184 155 153 144 161 171 167 225 196 165 143 219 233 245 222 254 320 280 315 275 252 280 255 246 243 250 254 247
233 227 233 219 217 213 202 206 183 19 234 173 206 234 178 179 249 173 174 135 168 175 167 219 238 144 144 171 164 237 190 194 265 331 262 41 293 259 267 284 278 274 255 253 266
239 225 222 215 207 196 196 192 197 52 232 164 164 172 169 175 143 202 162 57 164 173 152 227 181 193 174 189 176 212 163 195 202 233 307 205 254 274 335 284 265 270 313 279 272
232 227 220 212 205 202 182 172 153 229 210 163 136 163 157 187 132 99 120 70 134 124 90 219 319 160 196 164 173 169 208 216 110 180 264 206 186 246 216 214 282 288 322 4 19
227 225 209 204 204 208 170 149 184 211 135 162 163 165 177 169 156 155 167 182 162 156 209 159 212 328 138 111 126 178 141 222 343 211 232 285 199 261 259 238 227 275 290 300 338
222 218 211 206 195 194 164 193 205 171 189 153 166 158 185 144 195 160 156 190 226 108 122 169 272 183 187 177 177 191 190 163 196 200 259 352 237 250 233 268 256 256 269 289 254
214 210 205 198 191 184 186 205 200 180 159 149 138 162 180 179 148 168 191 199 203 181 168 162 257 134 194 152 147 203 210 164 100 3 10 231 289 287 280 289 308 258 278 295 147
197 196 208 190 185 185 212 197 151 171 116 137 151 179 175 186 158 183 176 199 210 195 172 208 195 204 205 137 220 169 160 191 175 230 245 255 264 236 303 288 308 313 234 145 142
179 187 196 182 177 194 206 203 136 165 135 125 139 148 188 177 175 187 193 260 197 188 185 175 163 47 135 202 193 180 213 199 174 183 202 274 258 222 237 274 283 296 269 179 165
167 193 175 161 182 196 223 161 136 160 138 129 118 108 156 167 179 186 204 189 199 147 187 182 166 188 212 195 207 224 213 200 185 233 252 242 254 210 250 260 202 336 59 163 171
163 148 178 162 184 184 133 126 262 144 171 151 133 139 166 162 179 191 187 199 138 162 169 167 205 124 327 356 15 200 222 221 227 100 226 220 260 339 206 220 251 165 159 163 171
126 185 158 163 70 186 156 173 108 347 99 119 121 105 109 168 183 195 215 180 173 179 176 173 170 212 219 191 147 201 205 218 214 233 247 240 260 252 326 230 224 177 192 187 185
112 259 110 158 157 129 122 157 165 145 61 12 66 169 152 149 188 187 211 160 158 194 185 179 215 204 243 258 222 225 210 211 208 230 228 248 246 260 208 203 211 203 190 201 216
137 159 24 158 142 146 160 181 167 172 165 180 167 166 182 167 189 200 174 172 188 176 185 199 232 171 252 239 229 257 240 217 219 229 237 249 256 256 225 194 226 232 216 218 226
197 319 101 136 151 154 187 160 181 127 322 168 172 127 180 207 127 93 128 123 130 161 194 186 200 184 244 227 145 238 233 232 238 234 224 233 243 264 251 219 218 229 221 226 231